EW5655 Weather Reports


time (UTC)temp
C
wind
direction
speed
KPH
gust
KPH
rain 1hr
cm
rain 24hr
cm
rain mn
cm
humidity
%
barometer
mb
20260510160033 28 355 12.9 29.0 0.00 0.00 0.00 16 1016.7
20260510155527 28 32 14.5 29.0 0.00 0.00 0.00 16 1016.7
20260510155023 28 5 11.3 22.5 0.00 0.00 0.00 16 1016.6
20260510154519 28 358 9.7 17.7 0.00 0.00 0.00 16 1016.5
20260510154017 28 11 8.0 22.5 0.00 0.00 0.00 17 1016.5
20260510153520 28 13 11.3 24.1 0.00 0.00 0.00 17 1016.4
20260510153015 27 12 11.3 24.1 0.00 0.00 0.00 17 1016.3
20260510152513 27 17 8.0 20.9 0.00 0.00 0.00 17 1016.3
20260510152013 27 36 11.3 22.5 0.00 0.00 0.00 17 1016.3
20260510151511 27 40 8.0 22.5 0.00 0.00 0.00 17 1016.3
20260510151013 26 17 11.3 22.5 0.00 0.00 0.00 17 1016.2
20260510150508 26 51 14.5 22.5 0.00 0.00 0.00 17 1016.2
20260510150006 26 329 9.7 19.3 0.00 0.00 0.00 18 1016.2
20260510145504 26 44 9.7 17.7 0.00 0.00 0.00 18 1016.2
20260510145003 25 40 8.0 17.7 0.00 0.00 0.00 19 1016.1
20260510144503 25 16 9.7 17.7 0.00 0.00 0.00 19 1016.1
20260510144106 24 331 6.4 17.7 0.00 0.00 0.00 19 1016.1
20260510143559 24 49 8.0 17.7 0.00 0.00 0.00 19 1016.1
20260510143110 23 65 6.4 17.7 0.00 0.00 0.00 20 1016.0
20260510142557 23 40 9.7 16.1 0.00 0.00 0.00 19 1016.0
20260510142055 23 33 8.0 17.7 0.00 0.00 0.00 20 1016.0
20260510141556 23 17 6.4 20.9 0.00 0.00 0.00 20 1015.8
20260510141054 22 15 11.3 20.9 0.00 0.00 0.00 20 1015.8
20260510140554 22 355 8.0 17.7 0.00 0.00 0.00 20 1015.8
20260510140052 22 359 9.7 17.7 0.00 0.00 0.00 20 1015.8
20260510135550 22 41 6.4 16.1 0.00 0.00 0.00 20 1015.7
20260510135050 22 359 9.7 17.7 0.00 0.00 0.00 20 1015.6
20260510134550 22 29 9.7 17.7 0.00 0.00 0.00 20 1015.6
20260510134048 22 7 9.7 17.7 0.00 0.00 0.00 20 1015.6
20260510133553 21 7 8.0 19.3 0.00 0.00 0.00 20 1015.6
20260510133048 21 48 8.0 19.3 0.00 0.00 0.00 20 1015.6
20260510132547 21 17 11.3 19.3 0.00 0.00 0.00 20 1015.7
20260510132046 21 16 9.7 16.1 0.00 0.00 0.00 21 1015.7
20260510131546 21 26 8.0 16.1 0.00 0.00 0.00 21 1015.7
20260510131046 20 13 8.0 14.5 0.00 0.00 0.00 22 1015.6
20260510130545 20 23 4.8 12.9 0.00 0.00 0.00 22 1015.5
20260510130044 20 3 8.0 12.9 0.00 0.00 0.00 22 1015.5
20260510125544 20 351 4.8 12.9 0.00 0.00 0.00 23 1015.5
20260510125043 19 47 6.4 12.9 0.00 0.00 0.00 23 1015.3
20260510124544 20 11 6.4 14.5 0.00 0.00 0.00 23 1015.2
20260510124040 20 5 6.4 14.5 0.00 0.00 0.00 22 1015.1
20260510123540 20 19 6.4 14.5 0.00 0.00 0.00 22 1015.2
20260510123038 20 31 6.4 12.9 0.00 0.00 0.00 22 1015.2
20260510122537 20 15 6.4 12.9 0.00 0.00 0.00 22 1015.1
20260510122036 20 5 8.0 12.9 0.00 0.00 0.00 22 1015.1
20260510121537 20 15 4.8 11.3 0.00 0.00 0.00 22 1014.9
20260510121036 20 22 3.2 11.3 0.00 0.00 0.00 22 1014.9
20260510120534 20 32 4.8 9.7 0.00 0.00 0.00 22 1014.8
20260510120035 20 19 1.6 9.7 0.00 0.00 0.00 22 1014.8
20260510115534 20 55 4.8 11.3 0.00 0.00 0.00 22 1014.6
20260510115035 20 23 3.2 12.9 0.00 0.00 0.00 21 1014.6
20260510114538 20 49 1.6 12.9 0.00 0.00 0.00 21 1014.6
20260510114034 20 34 3.2 11.3 0.00 0.00 0.00 21 1014.6
20260510113531 21 38 3.2 11.3 0.00 0.00 0.00 21 1014.5
20260510113031 21 55 4.8 11.3 0.00 0.00 0.00 20 1014.5
20260510112531 21 61 3.2 11.3 0.00 0.00 0.00 20 1014.5
20260510112032 21 64 4.8 11.3 0.00 0.00 0.00 20 1014.4
20260510111531 21 37 4.8 11.3 0.00 0.00 0.00 19 1014.5
20260510111029 21 49 3.2 9.7 0.00 0.00 0.00 20 1014.5
20260510110530 21 53 3.2 11.3 0.00 0.00 0.00 20 1014.4
20260510110033 22 24 3.2 11.3 0.00 0.00 0.00 19 1014.4
20260510105531 22 11 4.8 9.7 0.00 0.00 0.00 19 1014.3
20260510105027 22 7 4.8 9.7 0.00 0.00 0.00 19 1014.3
20260510104527 21 16 3.2 11.3 0.00 0.00 0.00 19 1014.2
20260510104027 21 26 4.8 11.3 0.00 0.00 0.00 19 1014.1
20260510103527 22 31 3.2 12.9 0.00 0.00 0.00 19 1014.1
20260510103026 22 11 3.2 12.9 0.00 0.00 0.00 18 1014.1
20260510102526 22 9 8.0 14.5 0.00 0.00 0.00 18 1014.0
20260510102028 22 38 3.2 11.3 0.00 0.00 0.00 18 1014.0
20260510101525 22 11 6.4 11.3 0.00 0.00 0.00 18 1014.0
20260510101025 22 29 3.2 9.7 0.00 0.00 0.00 19 1013.9
20260510100525 21 49 3.2 8.0 0.00 0.00 0.00 19 1014.0
20260510100024 21 20 3.2 4.8 0.00 0.00 0.00 19 1014.0
20260510095524 21 33 0.0 6.4 0.00 0.00 0.00 19 1013.9
20260510095024 21 34 0.0 4.8 0.00 0.00 0.00 20 1013.9
20260510094528 21 30 0.0 4.8 0.00 0.00 0.00 21 1013.9
20260510094022 21 27 0.0 6.4 0.00 0.00 0.00 20 1013.9
20260510093522 21 30 1.6 6.4 0.00 0.00 0.00 20 1013.8
20260510093031 21 40 1.6 6.4 0.00 0.00 0.00 20 1013.8
20260510092521 21 56 0.0 3.2 0.00 0.00 0.00 20 1013.7
20260510092020 21 56 0.0 6.4 0.00 0.00 0.00 21 1013.6
20260510091521 20 56 0.0 3.2 0.00 0.00 0.00 20 1013.6
20260510091020 20 56 0.0 6.4 0.00 0.00 0.00 20 1013.6
20260510090520 20 56 1.6 4.8 0.00 0.00 0.00 21 1013.6
20260510090020 20 56 0.0 3.2 0.00 0.00 0.00 20 1013.6
20260510085518 20 56 0.0 3.2 0.00 0.00 0.00 20 1013.6
20260510085018 20 56 1.6 3.2 0.00 0.00 0.00 21 1013.6
20260510084527 20 56 0.0 1.6 0.00 0.00 0.00 22 1013.6
20260510084017 20 56 0.0 1.6 0.00 0.00 0.00 22 1013.6
20260510083516 20 56 0.0 1.6 0.00 0.00 0.00 21 1013.4
20260510083016 21 56 0.0 1.6 0.00 0.00 0.00 21 1013.4
20260510082515 21 56 0.0 8.0 0.00 0.00 0.00 20 1013.4
20260510082015 21 67 1.6 9.7 0.00 0.00 0.00 20 1013.4
20260510081523 21 65 4.8 9.7 0.00 0.00 0.00 20 1013.4
20260510081015 21 55 1.6 6.4 0.00 0.00 0.00 20 1013.4
20260510080514 21 105 0.0 6.4 0.00 0.00 0.00 19 1013.3
20260510080019 21 105 0.0 6.4 0.00 0.00 0.00 20 1013.3
20260510075514 21 92 1.6 6.4 0.00 0.00 0.00 21 1013.3
20260510075012 21 92 0.0 6.4 0.00 0.00 0.00 21 1013.3
20260510074512 20 83 0.0 6.4 0.00 0.00 0.00 21 1013.3
20260510074012 20 51 0.0 3.2 0.00 0.00 0.00 22 1013.4
20260510073509 21 51 0.0 6.4 0.00 0.00 0.00 21 1013.4
20260510073009 21 51 0.0 6.4 0.00 0.00 0.00 21 1013.3
20260510072508 21 52 1.6 6.4 0.00 0.00 0.00 21 1013.3
20260510072011 22 276 0.0 8.0 0.00 0.00 0.00 21 1013.3
20260510071507 22 184 4.8 9.7 0.00 0.00 0.00 20 1013.3
20260510071005 22 223 6.4 8.0 0.00 0.00 0.00 22 1013.2
20260510070504 22 254 1.6 4.8 0.00 0.00 0.00 20 1013.2
20260510070004 22 322 0.0 3.2 0.00 0.00 0.00 20 1013.2
20260510065503 22 322 0.0 3.2 0.00 0.00 0.00 20 1013.1
20260510065003 23 317 1.6 3.2 0.00 0.00 0.00 17 1013.1
20260510064506 23 310 0.0 8.0 0.00 0.00 0.00 16 1013.2
20260510064003 24 306 3.2 8.0 0.00 0.00 0.00 16 1013.1
20260510063503 24 308 0.0 11.3 0.00 0.00 0.00 16 1013.2
20260510063004 24 313 1.6 12.9 0.00 0.00 0.00 15 1013.1
20260510062601 24 295 3.2 12.9 0.00 0.00 0.00 15 1013.1
20260510062100 23 316 4.8 9.7 0.00 0.00 0.00 16 1013.1
20260510061558 23 324 3.2 9.7 0.00 0.00 0.00 17 1013.1
20260510061057 22 321 1.6 9.7 0.00 0.00 0.00 18 1013.1
20260510060556 22 307 0.0 4.8 0.00 0.00 0.00 19 1013.1
20260510060054 22 308 0.0 6.4 0.00 0.00 0.00 19 1013.1
20260510055554 23 294 0.0 9.7 0.00 0.00 0.00 18 1013.1
20260510055053 22 294 3.2 9.7 0.00 0.00 0.00 17 1013.1
20260510054553 22 320 0.0 6.4 0.00 0.00 0.00 18 1013.1
20260510054053 22 261 0.0 6.4 0.00 0.00 0.00 18 1013.1
20260510053553 22 230 0.0 3.2 0.00 0.00 0.00 19 1013.1
20260510053053 22 230 0.0 3.2 0.00 0.00 0.00 18 1013.1
20260510052553 22 230 0.0 1.6 0.00 0.00 0.00 19 1013.1
20260510052056 22 230 0.0 1.6 0.00 0.00 0.00 18 1013.1
20260510051552 22 230 0.0 1.6 0.00 0.00 0.00 18 1013.1
20260510051052 23 230 0.0 1.6 0.00 0.00 0.00 18 1013.1
20260510050551 23 230 0.0 3.2 0.00 0.00 0.00 17 1013.1
20260510050052 24 230 0.0 8.0 0.00 0.00 0.00 16 1013.1
20260510045552 24 230 3.2 8.0 0.00 0.00 0.00 15 1013.1
20260510045052 24 231 1.6 6.4 0.00 0.00 0.00 16 1013.1
20260510044551 24 212 1.6 6.4 0.00 0.00 0.00 16 1013.1
20260510044051 24 213 0.0 3.2 0.00 0.00 0.00 16 1013.0
20260510043551 24 213 0.0 3.2 0.00 0.00 0.00 16 1013.0
20260510043056 24 213 0.0 1.6 0.00 0.00 0.00 17 1013.0
20260510042555 25 213 0.0 6.4 0.00 0.00 0.00 15 1013.0
20260510042050 25 213 0.0 8.0 0.00 0.00 0.00 15 1013.0
20260510041550 26 219 3.2 8.0 0.00 0.00 0.00 13 1013.0
20260510041051 26 237 1.6 9.7 0.00 0.00 0.00 13 1012.9
20260510040551 26 225 1.6 14.5 0.00 0.00 0.00 13 1012.9
20260510040053 26 286 4.8 14.5 0.00 0.00 0.00 13 1012.8
20260510035549 26 236 4.8 12.9 0.00 0.00 0.00 13 1012.8
20260510035049 26 276 4.8 16.1 0.00 0.00 0.00 12 1012.7
20260510034551 26 229 6.4 16.1 0.00 0.00 0.00 12 1012.6
20260510034049 26 216 6.4 12.9 0.00 0.00 0.00 12 1012.6
20260510033548 27 232 4.8 16.1 0.00 0.00 0.00 13 1012.6
20260510033110 27 291 8.0 16.1 0.00 0.00 0.00 12 1012.6
20260510032548 27 232 4.8 16.1 0.00 0.00 0.00 12 1012.5
20260510032050 27 222 6.4 16.1 0.00 0.00 0.00 12 1012.5
20260510031550 27 257 9.7 14.5 0.00 0.00 0.00 11 1012.4
20260510031043 27 239 8.0 14.5 0.00 0.00 0.00 11 1012.4
20260510030541 27 272 8.0 16.1 0.00 0.00 0.00 11 1012.3
20260510030041 28 242 6.4 16.1 0.00 0.00 0.00 11 1012.2
20260510025541 28 254 6.4 14.5 0.00 0.00 0.00 11 1012.2
20260510025040 28 215 8.0 16.1 0.00 0.00 0.00 11 1012.1
20260510024545 28 221 9.7 16.1 0.00 0.00 0.00 11 1012.1
20260510024043 28 211 6.4 16.1 0.00 0.00 0.00 11 1012.0
20260510023540 28 248 8.0 19.3 0.00 0.00 0.00 11 1011.9
20260510023041 29 257 11.3 19.3 0.00 0.00 0.00 11 1011.8
20260510022540 29 248 9.7 17.7 0.00 0.00 0.00 11 1011.8
20260510022039 29 248 8.0 17.7 0.00 0.00 0.00 11 1011.7
20260510021540 29 232 9.7 20.9 0.00 0.00 0.00 11 1011.6
20260510021040 29 286 9.7 20.9 0.00 0.00 0.00 10 1011.5
20260510020540 30 261 9.7 19.3 0.00 0.00 0.00 11 1011.4
20260510020042 30 248 9.7 17.7 0.00 0.00 0.00 10 1011.4
20260510015539 30 281 8.0 16.1 0.00 0.00 0.00 10 1011.4
20260510015039 30 248 8.0 16.1 0.00 0.00 0.00 11 1011.3
20260510014539 30 228 6.4 19.3 0.00 0.00 0.00 10 1011.3
20260510014040 30 221 8.0 19.3 0.00 0.00 0.00 11 1011.2
20260510013539 30 224 9.7 17.7 0.00 0.00 0.00 10 1011.1
20260510013038 30 251 9.7 16.1 0.00 0.00 0.00 10 1011.1
20260510012538 31 252 8.0 19.3 0.00 0.00 0.00 10 1011.1
20260510012038 31 232 9.7 19.3 0.00 0.00 0.00 10 1011.1
20260510011549 31 252 11.3 19.3 0.00 0.00 0.00 10 1011.0
20260510011037 31 204 9.7 16.1 0.00 0.00 0.00 10 1011.0
20260510010537 31 224 8.0 12.9 0.00 0.00 0.00 10 1011.0
20260510010037 31 234 6.4 12.9 0.00 0.00 0.00 10 1011.0
20260510005537 31 198 6.4 12.9 0.00 0.00 0.00 10 1010.9
20260510005038 31 210 6.4 16.1 0.00 0.00 0.00 9 1011.0
20260510004540 32 184 9.7 16.1 0.00 0.00 0.00 9 1011.0
20260510004035 32 209 6.4 12.9 0.00 0.00 0.00 10 1011.0
20260510003535 32 194 6.4 12.9 0.00 0.00 0.00 9 1011.0
20260510003058 32 267 4.8 12.9 0.00 0.00 0.00 10 1011.0
20260510002534 32 231 8.0 20.9 0.00 0.00 0.00 9 1011.0
20260510002034 32 188 8.0 20.9 0.00 0.00 0.00 9 1011.0
20260510001539 32 240 4.8 19.3 0.00 0.00 0.00 9 1011.0
20260510001034 32 196 9.7 16.1 0.00 0.00 0.00 10 1011.0
20260510000533 32 152 9.7 20.9 0.00 0.00 0.00 9 1011.1
20260510000037 32 218 9.7 16.1 0.00 0.00 0.00 10 1011.1
20260509235532 32 281 6.4 16.1 0.00 0.00 0.00 10 1011.1
20260509235032 32 209 6.4 16.1 0.00 0.00 0.00 9 1011.2
20260509234536 32 206 8.0 14.5 0.00 0.00 0.00 9 1011.2
20260509234032 33 218 6.4 14.5 0.00 0.00 0.00 9 1011.2
20260509233531 33 136 8.0 16.1 0.00 0.00 0.00 10 1011.3
20260509233032 33 267 3.2 16.1 0.00 0.00 0.00 10 1011.3
20260509232532 33 242 3.2 17.7 0.00 0.00 0.00 10 1011.3
20260509232031 33 276 9.7 17.7 0.00 0.00 0.00 9 1011.4
20260509231539 33 210 4.8 20.9 0.00 0.00 0.00 9 1011.4
20260509231032 33 166 11.3 20.9 0.00 0.00 0.00 9 1011.4
20260509230529 33 158 9.7 20.9 0.00 0.00 0.00 9 1011.4
20260509230033 33 167 8.0 16.1 0.00 0.00 0.00 9 1011.5
20260509225530 33 156 8.0 17.7 0.00 0.00 0.00 9 1011.5
20260509225027 33 176 4.8 17.7 0.00 0.00 0.00 9 1011.7
20260509224529 33 186 11.3 17.7 0.00 0.00 0.00 9 1011.7
20260509224027 33 359 3.2 20.9 0.00 0.00 0.00 9 1011.6
20260509223526 33 323 6.4 20.9 0.00 0.00 0.00 9 1011.8
20260509223028 33 131 9.7 19.3 0.00 0.00 0.00 9 1011.9
20260509222524 33 129 6.4 12.9 0.00 0.00 0.00 9 1011.9
20260509222025 33 189 8.0 19.3 0.00 0.00 0.00 9 1012.0
20260509221524 33 164 11.3 19.3 0.00 0.00 0.00 9 1012.0
20260509221024 33 175 8.0 17.7 0.00 0.00 0.00 9 1012.1
20260509220523 33 186 8.0 12.9 0.00 0.00 0.00 9 1012.2
20260509220021 33 121 8.0 14.5 0.00 0.00 0.00 10 1012.2
20260509215523 33 104 8.0 19.3 0.00 0.00 0.00 9 1012.3
20260509215020 33 172 11.3 17.7 0.00 0.00 0.00 8 1012.3
20260509214520 33 126 8.0 14.5 0.00 0.00 0.00 9 1012.4
20260509214019 33 167 3.2 9.7 0.00 0.00 0.00 9 1012.5
20260509213521 32 167 0.0 20.9 0.00 0.00 0.00 9 1012.6
20260509213019 33 185 9.7 20.9 0.00 0.00 0.00 9 1012.8
20260509212518 33 259 8.0 16.1 0.00 0.00 0.00 9 1012.8
20260509212017 33 196 1.6 14.5 0.00 0.00 0.00 9 1012.9
20260509211515 33 219 6.4 14.5 0.00 0.00 0.00 10 1013.0
20260509211014 32 136 3.2 8.0 0.00 0.00 0.00 10 1013.1
20260509210513 32 9 1.6 8.0 0.00 0.00 0.00 10 1013.2
20260509210015 32 190 0.0 11.3 0.00 0.00 0.00 9 1013.3
20260509205511 32 202 4.8 14.5 0.00 0.00 0.00 9 1013.4
20260509205010 32 197 8.0 19.3 0.00 0.00 0.00 9 1013.5
20260509204510 33 220 9.7 19.3 0.00 0.00 0.00 10 1013.6
20260509204012 32 193 6.4 16.1 0.00 0.00 0.00 8 1013.5
20260509203611 32 192 9.7 19.3 0.00 0.00 0.00 8 1013.7
20260509203009 32 137 8.0 19.3 0.00 0.00 0.00 9 1013.7
20260509202508 32 170 4.8 14.5 0.00 0.00 0.00 10 1013.8
20260509202010 32 344 4.8 16.1 0.00 0.00 0.00 9 1013.9
20260509201510 32 186 9.7 16.1 0.00 0.00 0.00 11 1014.0
20260509201007 32 214 4.8 16.1 0.00 0.00 0.00 10 1014.1
20260509200507 32 267 1.6 16.1 0.00 0.00 0.00 10 1014.2
20260509200008 32 317 3.2 16.1 0.00 0.00 0.00 10 1014.2
20260509195508 32 263 9.7 14.5 0.00 0.00 0.00 11 1014.3
20260509195006 32 201 8.0 14.5 0.00 0.00 0.00 11 1014.4
20260509194510 32 96 3.2 14.5 0.00 0.00 0.00 12 1014.4
20260509194005 32 125 6.4 16.1 0.00 0.00 0.00 11 1014.5
20260509193504 32 198 9.7 16.1 0.00 0.00 0.00 11 1014.5
20260509193004 31 172 6.4 16.1 0.00 0.00 0.00 12 1014.6
20260509192503 31 236 4.8 16.1 0.00 0.00 0.00 11 1014.7
20260509192003 31 218 8.0 14.5 0.00 0.00 0.00 12 1014.7
20260509191503 31 180 0.0 14.5 0.00 0.00 0.00 12 1014.7
20260509191005 31 257 8.0 12.9 0.00 0.00 0.00 14 1014.7
20260509190503 31 155 3.2 11.3 0.00 0.00 0.00 13 1014.8
20260509190001 31 221 3.2 11.3 0.00 0.00 0.00 14 1014.8
20260509185600 31 246 3.2 9.7 0.00 0.00 0.00 13 1014.9
20260509185059 30 192 4.8 9.7 0.00 0.00 0.00 15 1014.9
20260509184602 30 261 1.6 11.3 0.00 0.00 0.00 15 1015.0
20260509184058 30 123 8.0 11.3 0.00 0.00 0.00 13 1015.1
20260509183559 30 207 3.2 9.7 0.00 0.00 0.00 14 1015.1
20260509183134 30 260 3.2 11.3 0.00 0.00 0.00 14 1015.1
20260509182554 30 244 6.4 11.3 0.00 0.00 0.00 15 1015.2
20260509182052 30 231 1.6 11.3 0.00 0.00 0.00 15 1015.2
20260509181608 29 167 4.8 11.3 0.00 0.00 0.00 15 1015.4
20260509181051 29 236 3.2 11.3 0.00 0.00 0.00 15 1015.4
20260509180550 29 176 4.8 11.3 0.00 0.00 0.00 15 1015.5
20260509180050 29 213 4.8 11.3 0.00 0.00 0.00 16 1015.5
20260509175548 28 221 0.0 11.3 0.00 0.00 0.00 15 1015.6
20260509175046 28 217 0.0 11.3 0.00 0.00 0.00 15 1015.6
20260509174545 28 150 1.6 8.0 0.00 0.00 0.00 15 1015.6
20260509174044 28 164 3.2 8.0 0.00 0.00 0.00 15 1015.7
20260509173542 27 286 0.0 8.0 0.00 0.00 0.00 15 1015.6
20260509173040 27 286 3.2 8.0 0.00 0.00 0.00 16 1015.7
20260509172539 27 291 1.6 8.0 0.00 0.00 0.00 17 1015.7
20260509172039 27 305 3.2 8.0 0.00 0.00 0.00 16 1015.7
20260509171538 26 192 1.6 8.0 0.00 0.00 0.00 17 1015.8
20260509171035 26 167 3.2 8.0 0.00 0.00 0.00 18 1015.8
20260509170534 26 207 0.0 9.7 0.00 0.00 0.00 18 1015.8
20260509170032 26 170 3.2 11.3 0.00 0.00 0.00 19 1015.8
20260509165530 25 142 4.8 11.3 0.00 0.00 0.00 20 1015.8
20260509165029 25 192 1.6 8.0 0.00 0.00 0.00 19 1015.8
20260509164527 25 194 4.8 11.3 0.00 0.00 0.00 20 1015.9
20260509164027 25 187 4.8 11.3 0.00 0.00 0.00 22 1015.9
20260509163524 25 194 3.2 9.7 0.00 0.00 0.00 20 1015.9
20260509163030 24 211 4.8 9.7 0.00 0.00 0.00 22 1015.9
20260509162524 24 157 4.8 9.7 0.00 0.00 0.00 23 1015.9
20260509162025 24 207 4.8 9.7 0.00 0.00 0.00 23 1015.8
20260509161519 23 213 3.2 9.7 0.00 0.00 0.00 23 1015.8
20260509161018 23 198 3.2 9.7 0.00 0.00 0.00 24 1015.9
20260509160520 23 155 3.2 9.7 0.00 0.00 0.00 24 1015.9